This is the latest recevied weather packets stored in our database for station/object EA4HRG-10. If no packets are shown the sender has not sent any weather packets the latest 10 day(s).
| Time | Temp. | Humidity | Pressure | Rain* | Wind** | Luminosity | Snow |
|---|---|---|---|---|---|---|---|
| 1788234038 | 16.11° C | 100% | 1020.4 hPa | - | - | - | - |
| 1788233138 | 16.67° C | 77% | 1020.2 hPa | - | - | - | - |
| 1788232238 | 16.67° C | 75% | 1020.2 hPa | - | - | - | - |
| 1788231505 | 17.22° C | 76% | 1019.9 hPa | - | - | - | - |
| 1788231338 | 17.22° C | 76% | 1019.9 hPa | - | - | - | - |
| 1788230438 | 17.22° C | 74% | 1019.8 hPa | - | - | - | - |
| 1788229538 | 17.78° C | 73% | 1019.7 hPa | - | - | - | - |
| 1788228638 | 18.33° C | 71% | 1019.6 hPa | - | - | - | - |
| 1788227738 | 18.89° C | 70% | 1019.5 hPa | - | - | - | - |
| 1788226844 | 19.44° C | 68% | 1019.3 hPa | - | - | - | - |
| 1788226109 | 19.44° C | 67% | 1019.1 hPa | - | - | - | - |
| 1788225938 | 19.44° C | 67% | 1019.1 hPa | - | - | - | - |
| 1788225038 | 20° C | 66% | 1019.2 hPa | - | - | - | - |
| 1788224207 | 20° C | 65% | 1019.1 hPa | - | - | - | - |
| 1788224138 | 20° C | 65% | 1019.1 hPa | - | - | - | - |
| 1788223238 | 20° C | 62% | 1019.1 hPa | - | - | - | - |
| 1788222338 | - | 100% | - | - | - | - | - |
| 1788221438 | - | 100% | - | - | - | - | - |
| 1788220539 | - | 100% | - | - | - | - | - |
| 1788219638 | 21.11° C | 56% | 1018.7 hPa | - | - | - | - |
| 1788218754 | 21.67° C | 55% | 1018.5 hPa | - | - | - | - |
| 1788217838 | 21.67° C | 55% | 1018.3 hPa | - | - | - | - |
| 1788216938 | 21.67° C | 56% | 1018.1 hPa | - | - | - | - |
| 1788216038 | 22.22° C | 55% | 1017.9 hPa | - | - | - | - |
| 1788215138 | 21.67° C | 56% | 1017.9 hPa | - | - | - | - |
* Rain since midnight (hover to see other rain measurements)
** Current wind speed in m/s (hover to see current wind gust speed)